Piloto Civil Norberto Fernandez current weather conditions

sailwx.info

Air temperature 8.0° C
Dewpoint -0.0° C

Last reported at 2015-Aug-29 17:00 UTC.
Time now 2015-Aug-29 18:57 UTC

Location: S 51°37' W 069°19'.
View on Google Maps.

See reports from other nearby stations

  
Tides and Currents Weather Stations Pressure Air Temp Water Temp Dewpoint Dewpoint Depression Visibility Wind Speed Wind Dir Waves Ship Positions
date/time (UTC)wind fromknots sea level pressurealtimeterstation pressurevisibilityair tempwater tempwave heightnotes
2015-Aug-29 17:00 8.0
2015-Aug-29 16:00 7.0
2015-Aug-29 15:00 5.4 6.0
2015-Aug-29 14:00 5.4 4.0
2015-Aug-29 13:00 5.4 3.0
2015-Aug-29 12:00 5.4-0.0
2015-Aug-29 11:00 5.4-1.0
2015-Aug-29 10:00 5.4-1.0
2015-Aug-29 09:30 5.4-0.0
2015-Aug-29 09:00 0.2-0.0 Fog.
2015-Aug-29 08:00 270 5 0.2 1.0 Fog.
2015-Aug-29 07:00 1.0
2015-Aug-29 06:00 320 7 2.0
2015-Aug-29 05:00 5.4 3.0
2015-Aug-29 04:00 320 7 5.4 5.0
2015-Aug-29 03:00 340 8 5.0
2015-Aug-29 02:00 020 8 5.4 5.0
2015-Aug-29 01:00 020 7 5.4 6.0
2015-Aug-29 00:00 5.4 6.0
2015-Aug-28 23:00 5.4 6.0
2015-Aug-28 22:00 050 5 5.4 8.0
2015-Aug-28 21:00 5.410.0
2015-Aug-28 20:00 5.411.0
2015-Aug-28 19:00 5.410.0
2015-Aug-28 18:00 5.4 9.0
2015-Aug-28 17:00 5.4 8.0
2015-Aug-28 16:00 5.4 8.0
2015-Aug-28 15:00 5.4 7.0
2015-Aug-28 14:00 5.4 5.0
2015-Aug-28 13:00 5.4 4.0
2015-Aug-28 12:00 5.4 3.0
2015-Aug-28 11:00 5.4 3.0
2015-Aug-28 10:00 5.4 5.0
2015-Aug-28 09:00 5.4 5.0
2015-Aug-28 08:00 020 2 5.4 5.0
2015-Aug-28 07:00 050 2 5.4 5.0
2015-Aug-28 06:00 050 2 5.4 5.0
2015-Aug-28 05:00 090 2 5.4 6.0
2015-Aug-28 04:00 020 13 5.4 7.0
2015-Aug-28 03:00 020 19 5.4 7.0
2015-Aug-28 02:00 070 3 5.4 6.0
2015-Aug-28 01:00 360 18 5.4 6.0
2015-Aug-28 00:00 020 17 5.4 6.0
2015-Aug-27 23:00 050 6 5.4 7.0 Light rain.
2015-Aug-27 22:00 050 13 7.0
2015-Aug-27 21:00 360 17 5.4 7.0 Rain.
2015-Aug-27 20:00 020 17 7.0
2015-Aug-27 19:00 050 13 7.0
2015-Aug-27 18:00 050 15 8.0